OBJECT_NAME,OBJECT_ID,EPOCH,MEAN_MOTION,ECCENTRICITY,INCLINATION,RA_OF_ASC_NODE,ARG_OF_PERICENTER,MEAN_ANOMALY,EPHEMERIS_TYPE,CLASSIFICATION_TYPE,NORAD_CAT_ID,ELEMENT_SET_NO,REV_AT_EPOCH,BSTAR,MEAN_MOTION_DOT,MEAN_MOTION_DDOT OPS 7218 (TRANSIT 16),1967-048A,2026-09-12T05:39:20.394144,13.50779374,.00214556,89.6785,345.0358,49.6128,338.9399,0,U,2807,999,91968,.96861722E-4,.73E-6,0 OPS 4947 (TRANSIT 17),1967-092A,2026-09-12T06:17:13.571232,13.53511841,.00485992,89.2619,3.7262,159.5284,229.2898,0,U,2965,999,90797,.10301846E-3,.81E-6,0 OPS 7034 (TRANSIT 18),1968-012A,2026-09-12T02:26:25.746432,13.51623231,.00758794,90.0212,274.3386,98.4760,321.7539,0,U,3133,999,60611,.13151976E-3,.97E-6,0 NNSS 19 (TRANSIT 19),1970-067A,2026-09-11T23:55:50.628864,13.51377659,.01701554,90.0173,234.8752,220.5732,138.2637,0,U,4507,999,75912,.74709765E-4,.62E-6,0 NNSS 20 (TRANSIT 20),1973-081A,2026-09-12T06:39:20.847168,13.71531598,.01536494,89.8592,250.9961,338.6945,20.7864,0,U,6909,999,84110,.12441819E-3,.131E-5,0 TRANSAT,1977-106A,2026-09-12T01:24:20.764224,13.48980601,.00270825,89.6426,68.8142,122.8355,356.4662,0,U,10457,999,40428,.64963681E-4,.51E-6,0 NOVA 1,1981-044A,2026-09-12T02:02:28.135968,13.23309190,.0016111,89.8385,87.3310,72.5180,50.6583,0,U,12458,999,18801,.35793893E-4,.24E-6,0 NOVA 3,1984-110A,2026-09-12T02:00:11.968704,13.23076421,.00299166,90.1112,83.6114,297.7530,183.2142,0,U,15362,999,2312,.33989739E-4,.22E-6,0 OSCAR 30,1985-066A,2026-09-12T04:07:29.429760,13.36123266,.01689443,90.1464,104.0707,32.6948,87.9653,0,U,15935,999,96,.15401661E-3,.95E-6,0 OSCAR 24,1985-066B,2026-09-12T02:36:58.199616,13.35978449,.01701374,90.1626,96.9238,39.4409,73.7381,0,U,15936,999,294,.99846949E-4,.65E-6,0 POLAR BEAR,1986-088A,2026-09-12T06:33:57.966912,13.75300635,.00401744,89.6256,172.9358,18.2096,146.8542,0,U,17070,999,99738,.70573595E-4,.79E-6,0 OSCAR 27,1987-080A,2026-09-12T02:29:34.121760,13.44953577,.01043014,90.3619,89.3449,160.5773,199.9396,0,U,18361,999,91231,.11583983E-3,.79E-6,0 OSCAR 29,1987-080B,2026-09-12T01:42:21.508992,13.44489224,.01050528,90.3628,89.8217,184.3440,296.6941,0,U,18362,999,91182,.93164249E-4,.64E-6,0 OSCAR 23,1988-033A,2026-09-12T06:49:58.829088,13.27827771,.01907476,90.3352,25.0569,139.2548,244.7651,0,U,19070,999,85883,.45585183E-4,.32E-6,0 OSCAR 32,1988-033B,2026-09-12T07:18:17.642304,13.27989045,.01893962,90.3358,25.2041,125.9453,263.4831,0,U,19071,999,85896,.46812694E-4,.33E-6,0 NOVA 2,1988-052A,2026-09-12T00:48:42.306336,13.22964196,.00299215,89.9784,77.8139,343.7918,136.7678,0,U,19223,999,84561,.13057066E-3,.64E-6,0 OSCAR 25,1988-074A,2026-09-12T07:33:57.659616,13.42669430,.00961828,90.0484,21.3166,184.6348,204.2657,0,U,19419,999,86311,.80139434E-4,.56E-6,0 OSCAR 31,1988-074B,2026-09-12T06:31:44.558400,13.42621086,.00945642,90.0500,21.7113,179.0403,200.9570,0,U,19420,999,86321,.81690727E-4,.57E-6,0